Regional Weather Roundup
Issued by NWS

Home | Current Version | Previous Version | Text Only | Print | Product List | Glossary On
Versions: 1 2 3 4 5 6 7 8 9 10 11 12 13 14 15 16 17 18 19 20 21 22 23 24 25 26 27 28 29 30 31 32 33 34 35 36 37 38 39 40 41 42 43 44 45 46 47 48 49 50
000
ASUS43 KOAX 270410
RWRNE

WEATHER ROUNDUP FOR NEBRASKA
NATIONAL WEATHER SERVICE OMAHA NE
1100 PM CDT THU MAY 26 2016

NOTES: SATELLITE DATA IS BEING USED TO AUGMENT CLOUD COVER ABOVE
       12000 FEET.
       "FAIR" INDICATES FEW OR NO CLOUDS BELOW 12,000 FEET WITH NO
       SIGNIFICANT WEATHER AND/OR OBSTRUCTIONS TO VISIBILITY.

  * THESE STATIONS DO NOT REPORT WEATHER SUCH AS RAIN...SNOW OR FOG.

NEZ001>004-019>022-054>056-270500-
NEBRASKA PANHANDLE

CITY           SKY/WX    TMP DP  RH WIND       PRES   REMARKS
SCOTTSBLUFF    CLOUDY    55  43  63 NW8       29.85S
ALLIANCE       CLOUDY    54  47  77 NW7       29.84R
CHADRON        CLOUDY    47  43  86 W3        29.84R
KIMBALL        CLOUDY    52  44  75 NW12      29.87S
SIDNEY         LGT RAIN  54  46  74 S7        29.87R
$$

NEZ057>060-069>072-079>082-270500-
SOUTHWEST NEBRASKA

CITY           SKY/WX    TMP DP  RH WIND       PRES   REMARKS
NORTH PLATTE   LGT RAIN  61  51  70 VRB3      29.81R
IMPERIAL       CLOUDY    54  51  90 NW14      29.72F
LEXINGTON      TSTM      61  56  86 SE8G18    29.80R
MCCOOK         CLOUDY    55  51  86 N25G37    29.70F
OGALLALA       RAIN      55  52  89 E8        29.84F
$$

NEZ005>010-023>029-035>040-094-270500-
NORTH CENTRAL NEBRASKA

CITY           SKY/WX    TMP DP  RH WIND       PRES   REMARKS
VALENTINE      TSTM      57  51  80 E12       29.82R
AINSWORTH      MOCLDY    64  58  80 E8        29.80R
BROKEN BOW     TSTM      63  55  75 SE13G24   29.81R
O`NEILL        CLOUDY    64  57  80 SE3       29.79R
ORD            CLOUDY    61  56  83 S8        29.77R
THEDFORD       LGT RAIN  59  55  87 CALM      29.81S
$$

NEZ041-046>049-061>064-073>077-083>087-270500-
SOUTH CENTRAL NEBRASKA

CITY           SKY/WX    TMP DP  RH WIND       PRES   REMARKS
GRAND ISLAND   LGT RAIN  60  57  89 E37G47    29.74F
AURORA         LGT RAIN  60  58  93 S17G23    29.85S
HASTINGS       LGT RAIN  59  56  89 E32G44    29.74R
HEBRON         CLOUDY    61  59  92 S3        29.88R
HOLDREGE       RAIN      60  57  91 S10       29.83R
KEARNEY *      CLOUDY    61  55  82 E28G38    29.76S
YORK           LGT RAIN  61  57  88 S17G23    29.85R
$$

NEZ011>018-030>034-042>045-270500-
NORTHEAST NEBRASKA

CITY           SKY/WX    TMP DP  RH WIND       PRES   REMARKS
NORFOLK        CLOUDY    61  57  87 SE10      29.80R
ALBION         CLOUDY    61  57  85 SE8       29.79R
BLAIR          CLOUDY    65  54  68 SE21G32   29.76R
FREMONT        CLOUDY    64  54  71 SE14G23   29.77R
TEKAMAH        CLOUDY    64  53  67 SW12      29.78R
WAYNE          CLOUDY    62  57  85 S7        29.81R
$$

NEZ050>053-065>068-078-088>093-270500-
SOUTHEAST NEBRASKA

CITY           SKY/WX    TMP DP  RH WIND       PRES   REMARKS
LINCOLN        CLOUDY    63  57  81 SE21      29.81R
OMAHA EPPLEY   CLOUDY    66  53  63 SE30G44   29.77R
BEATRICE       CLOUDY    62  60  92 E14G25    29.81R
FALLS CITY     HVY RAIN  62  62 100 E18       29.87S FOG
NEBRASKA CITY  CLOUDY    61  60  98 E17G29    29.81R
PLATTSMOUTH    CLOUDY    64  57  78 E16G26    29.82R
$$

NEZ044-045-051>053-067-270500-
OMAHA AREA

CITY           SKY/WX    TMP DP  RH WIND       PRES   REMARKS
OMAHA EPPLEY   CLOUDY    66  53  63 SE30G44   29.77R
BLAIR          CLOUDY    65  54  68 SE21G32   29.76R
FREMONT        CLOUDY    64  54  71 SE14G23   29.77R
MILLARD        CLOUDY    65  55  69 SE15G21   29.78F
OFFUTT AFB     CLOUDY    64  56  74 E22G33    29.78R
PLATTSMOUTH    CLOUDY    64  57  78 E16G26    29.82R
WAHOO          FAIR      63  56  78 SE22G31   29.77S
$$



USA.gov is the U.S. government's official web portal to all federal, state and local government web resources and services.